TimeCST,TemperatureF,Dew PointF,Humidity,Sea Level PressureIn,VisibilityMPH,Wind Direction,Wind SpeedMPH,Gust SpeedMPH,PrecipitationIn,Events,Conditions,WindDirDegrees,DateUTC
12:00 AM,64.4,62.6,94,30.27,3.7,Variable,2.3,-,N/A,,Partly Cloudy,0,2013-08-09 06:00:00
12:23 AM,-9999,-9999,N/A,-9999,5.0,NNE,4.6,-,N/A,,Clear,20,2013-08-09 06:23:00
1:00 AM,64.4,57.2,77,30.27,-9999.0,Variable,2.3,-,N/A,,Clear,0,2013-08-09 07:00:00
2:00 AM,64.4,57.2,77,30.27,-9999.0,Calm,Calm,-,N/A,,Clear,0,2013-08-09 08:00:00
3:00 AM,62.6,57.2,82,30.24,-9999.0,Calm,Calm,-,N/A,,Clear,0,2013-08-09 09:00:00
4:00 AM,60.8,59.0,94,30.21,-9999.0,Calm,Calm,-,N/A,,Clear,0,2013-08-09 10:00:00
5:00 AM,60.8,59.0,94,30.21,-9999.0,Calm,Calm,-,N/A,,Clear,0,2013-08-09 11:00:00
6:00 AM,60,57,87,29.91,25,Calm,Calm,,,,Partly Cloudy,,2013-08-09 12:00:00
6:00 AM,59.0,57.2,94,30.21,-9999.0,Calm,Calm,-,N/A,,Clear,0,2013-08-09 12:00:00
7:00 AM,62.6,59.0,88,30.21,5.0,Calm,Calm,-,N/A,,Mostly Cloudy,0,2013-08-09 13:00:00
8:00 AM,66.2,60.8,83,30.24,4.3,SSW,4.6,-,N/A,,Mostly Cloudy,200,2013-08-09 14:00:00
9:00 AM,69.8,59.0,68,30.24,-9999.0,SSW,4.6,-,N/A,,Clear,210,2013-08-09 15:00:00
10:00 AM,73.4,55.4,53,30.24,5.6,South,9.2,-,N/A,,Scattered Clouds,180,2013-08-09 16:00:00
11:00 AM,75.2,53.6,47,30.24,6.2,South,9.2,-,N/A,,Scattered Clouds,170,2013-08-09 17:00:00
12:00 PM,77,56,38,29.86,25,South,11.5,,,,Partly Cloudy,180,2013-08-09 18:00:00
12:00 PM,77.0,55.4,47,30.24,6.2,South,11.5,-,N/A,,Partly Cloudy,180,2013-08-09 18:00:00
1:00 PM,77.0,57.2,50,30.21,6.2,SSW,11.5,-,N/A,,Partly Cloudy,200,2013-08-09 19:00:00
2:00 PM,77.0,60.8,57,30.21,6.2,South,13.8,-,N/A,,Scattered Clouds,180,2013-08-09 20:00:00
3:00 PM,75.2,59.0,57,30.18,6.2,South,13.8,-,N/A,Thunderstorm,Thunderstorm,180,2013-08-09 21:00:00
3:05 PM,-9999,-9999,N/A,-9999,3.1,North,18.4,-,N/A,Rain-Thunderstorm,Thunderstorms and Rain,360,2013-08-09 21:05:00
4:00 PM,68.0,59.0,73,30.18,6.2,WSW,4.6,-,N/A,,Scattered Clouds,240,2013-08-09 22:00:00
5:00 PM,69.8,60.8,73,30.15,5.0,South,6.9,-,N/A,,Mostly Cloudy,180,2013-08-09 23:00:00
6:00 PM,69.8,62.6,78,30.18,5.0,South,16.1,-,N/A,,Scattered Clouds,180,2013-08-10 00:00:00
6:35 PM,-9999,-9999,N/A,-9999,6.2,SSW,11.5,-,N/A,Thunderstorm,Thunderstorm,200,2013-08-10 00:35:00
7:00 PM,66.2,62.6,88,30.21,6.2,SSE,4.6,-,N/A,Thunderstorm,Thunderstorm,160,2013-08-10 01:00:00
7:15 PM,-9999,-9999,N/A,-9999,4.3,ENE,4.6,-,N/A,Rain-Thunderstorm,Light Thunderstorms and Rain,70,2013-08-10 01:15:00
8:00 PM,64.4,60.8,88,30.24,5.0,NNE,4.6,-,N/A,,Drizzle,30,2013-08-10 02:00:00
9:00 PM,64.4,60.8,88,30.27,6.2,Calm,Calm,-,N/A,,Light Drizzle,0,2013-08-10 03:00:00
9:14 PM,-9999,-9999,N/A,-9999,6.2,Calm,Calm,-,N/A,,Mostly Cloudy,0,2013-08-10 03:14:00
10:00 PM,64.4,60.8,88,30.30,6.2,Calm,Calm,-,N/A,,Mostly Cloudy,0,2013-08-10 04:00:00
11:00 PM,64.4,62.6,94,30.30,6.2,Calm,Calm,-,N/A,,Mostly Cloudy,0,2013-08-10 05:00:00